Tracking 19832 objects as of 25-Aug-2019
HD Live streaming from Space Station
objects crossing your sky now

FENGYUN 1C DEB

Track FENGYUN 1C DEB now!
10-day predictions


NORAD ID: 30442
Int'l Code: 1999-025AFD
Perigee: 814.5 km
Apogee: 912.0 km
Inclination: 99.0 °
Period: 102.1 minutes
Semi major axis: 7234 km
RCS: 0.0217 m2 (small)
Launch date: May 10, 1999
Source: People's Republic of China (PRC)
Launch site: Taiyaun Space Center, China (TSC)

Note: This is SATELLITE DEBRIS
aabbcc
Your satellite tracking list
Your tracking list is empty




NASA's NSSDC Master Catalog

Two Line Element Set (TLE):
1 30442U 99025AFD 19236.13184590  .00000340  00000-0  20978-3 0  9996
2 30442  98.9699 297.3195 0067438   0.4573  61.6344 14.10956662646356
Source of the keplerian elements: AFSPC